User: anonymous   Login
Location: Unspecified
(0.0000°N, 0.0000°E)
Time: 22:24:49
(UTC+00:00)
Language:

METEOR M2 - Orbit

View from above orbital plane
View from above orbital plane
View from above satellite
View from above satellite

Ground track
Ground track

The orbit data is extracted from the following two-line orbital elements,

1 40069U 14037A   17327.40574813 -.00000021  00000-0  10443-4 0  9996
2 40069  98.6349  18.6584 0006773 109.0849 251.1066 14.20647197175168
Epoch (UTC): 23 November 2017 09:44:16
Eccentricity: 0.0006773
inclination: 98.6349°
perigee height: 818 km
apogee height: 828 km
right ascension of ascending node: 18.6584°
argument of perigee: 109.0849°
revolutions per day: 14.20647197
mean anomaly at epoch: 251.1066°
orbit number at epoch: 17516

The dashed part of the orbit path shows where the satellite is in the earth's shadow,  

DLR